AVA9446 SKRG-SKSM

Flight info

Callsign AVA9446
Flight time 0h 50m
Altitude 34000
Route BIVIG1B BIVIG UW3 MGN/N0459F330 DCT DARNI DARNI1C
Aircraft A320/M-SDE3FGHIRWY/LB1

Departure

Time 2026-05-04 16:12
Airport Jose Maria Córdova International Airport (SKRG)

Arrival

Time 2026-05-04 17:03
Airport Simón Bolívar International Airport (SKSM)
Time Latitude Longitude Altitude Speed Heading
2026-05-04 15:42 6.16980 -75.42767 7020 ft 0 kts 329°
2026-05-04 16:02 6.16978 -75.42766 7018 ft 3 kts 329°
2026-05-04 16:02 6.16932 -75.42756 7018 ft 4 kts 48°
2026-05-04 16:03 6.16920 -75.42776 7019 ft 4 kts 68°
2026-05-04 16:03 6.16912 -75.42802 7019 ft 4 kts 75°
2026-05-04 16:03 6.16910 -75.42808 7022 ft 0 kts 75°
2026-05-04 16:05 6.16911 -75.42805 7020 ft 2 kts 74°
2026-05-04 16:06 6.16921 -75.42776 7019 ft 7 kts 69°
2026-05-04 16:06 6.17043 -75.42619 7018 ft 14 kts 86°
2026-05-04 16:07 6.16936 -75.42530 7012 ft 18 kts 148°
2026-05-04 16:07 6.16511 -75.42481 6981 ft 26 kts 179°
2026-05-04 16:08 6.16385 -75.42480 6981 ft 28 kts 179°
2026-05-04 16:08 6.15943 -75.42476 6975 ft 18 kts 179°
2026-05-04 16:09 6.15682 -75.42475 6975 ft 19 kts 180°
2026-05-04 16:09 6.15417 -75.42473 6975 ft 19 kts 180°
2026-05-04 16:10 6.15150 -75.42472 6977 ft 19 kts 180°
2026-05-04 16:11 6.14886 -75.42407 6976 ft 12 kts 90°
2026-05-04 16:11 6.14915 -75.42329 6976 ft 12 kts 41°
2026-05-04 16:12 6.15957 -75.42306 6979 ft 135 kts 359°
2026-05-04 16:12 6.19702 -75.42327 8359 ft 191 kts
2026-05-04 16:13 6.22317 -75.41403 8668 ft 223 kts 60°
2026-05-04 16:13 6.22830 -75.38148 9213 ft 260 kts 82°
2026-05-04 16:14 6.24283 -75.34559 10197 ft 291 kts 66°
2026-05-04 16:14 6.26201 -75.30653 10636 ft 334 kts 65°
2026-05-04 16:15 6.29895 -75.24488 12266 ft 356 kts 38°
2026-05-04 16:16 6.34703 -75.23292 13437 ft 368 kts 359°
2026-05-04 16:16 6.42399 -75.24180 15203 ft 376 kts 356°
2026-05-04 16:17 6.47654 -75.24398 16287 ft 379 kts
2026-05-04 16:18 6.55596 -75.23636 17883 ft 386 kts
2026-05-04 16:18 6.58275 -75.23327 18400 ft 389 kts
2026-05-04 16:19 6.66460 -75.22546 19647 ft 399 kts
2026-05-04 16:19 6.72034 -75.22082 20487 ft 404 kts
2026-05-04 16:20 6.80525 -75.21364 21687 ft 412 kts
2026-05-04 16:20 6.86271 -75.20868 22478 ft 417 kts
2026-05-04 16:21 6.94982 -75.20114 23592 ft 424 kts
2026-05-04 16:22 7.00896 -75.19603 24224 ft 428 kts
2026-05-04 16:22 7.09825 -75.18452 25138 ft 434 kts 11°
2026-05-04 16:23 7.18835 -75.16954 26038 ft 441 kts 10°
2026-05-04 16:24 7.31083 -75.15096 27143 ft 449 kts
2026-05-04 16:25 7.37296 -75.14171 27687 ft 453 kts
2026-05-04 16:26 7.49843 -75.12269 28712 ft 462 kts
2026-05-04 16:26 7.59432 -75.10816 29438 ft 468 kts
2026-05-04 16:27 7.65896 -75.09833 29895 ft 472 kts
2026-05-04 16:28 7.75686 -75.08344 30497 ft 476 kts
2026-05-04 16:28 7.85520 -75.06819 31301 ft 475 kts
2026-05-04 16:29 7.98537 -75.04825 32399 ft 474 kts
2026-05-04 16:30 8.08294 -75.03319 33280 ft 472 kts
2026-05-04 16:31 8.14765 -75.02315 33865 ft 471 kts
2026-05-04 16:32 8.34061 -74.99344 33937 ft 468 kts
2026-05-04 16:33 8.46924 -74.97354 33948 ft 466 kts
2026-05-04 16:34 8.56508 -74.95877 33950 ft 463 kts
2026-05-04 16:35 8.75604 -74.92920 33947 ft 462 kts
2026-05-04 16:36 8.85142 -74.91449 33943 ft 462 kts
2026-05-04 16:37 8.94657 -74.89973 33933 ft 461 kts
2026-05-04 16:38 9.07331 -74.88010 33929 ft 461 kts
2026-05-04 16:39 9.23183 -74.85555 33920 ft 461 kts
2026-05-04 16:40 9.35526 -74.82240 33915 ft 463 kts 19°
2026-05-04 16:41 9.50694 -74.76711 33484 ft 464 kts 19°
2026-05-04 16:42 9.59930 -74.73357 31117 ft 471 kts 19°
2026-05-04 16:43 9.66065 -74.71126 29811 ft 465 kts 19°
2026-05-04 16:43 9.72066 -74.68944 28540 ft 456 kts 19°
2026-05-04 16:43 9.75037 -74.67863 27927 ft 452 kts 19°
2026-05-04 16:44 9.86679 -74.63628 25548 ft 437 kts 19°
2026-05-04 16:45 9.92364 -74.61551 24422 ft 430 kts 19°
2026-05-04 16:46 10.00691 -74.58513 22867 ft 415 kts 19°
2026-05-04 16:46 10.06057 -74.56565 21906 ft 405 kts 20°
2026-05-04 16:47 10.11270 -74.54666 20955 ft 397 kts 20°
2026-05-04 16:47 10.16459 -74.52888 19983 ft 392 kts 14°
2026-05-04 16:48 10.24370 -74.50956 18484 ft 388 kts 15°
2026-05-04 16:48 10.26993 -74.50310 17950 ft 388 kts 16°
2026-05-04 16:49 10.32214 -74.49027 16926 ft 384 kts 16°
2026-05-04 16:49 10.37378 -74.47760 15947 ft 380 kts 16°
2026-05-04 16:50 10.42497 -74.46495 14958 ft 376 kts 16°
2026-05-04 16:50 10.47402 -74.45296 14014 ft 353 kts 16°
2026-05-04 16:51 10.52178 -74.44121 13033 ft 352 kts 16°
2026-05-04 16:51 10.54552 -74.43535 12557 ft 350 kts 16°
2026-05-04 16:51 10.59271 -74.42372 11605 ft 347 kts 16°
2026-05-04 16:52 10.63926 -74.41218 10635 ft 346 kts 15°
2026-05-04 16:52 10.66250 -74.40645 10325 ft 335 kts 15°
2026-05-04 16:53 10.70502 -74.39605 9780 ft 302 kts 15°
2026-05-04 16:53 10.76549 -74.38118 9180 ft 296 kts 15°
2026-05-04 16:54 10.78545 -74.37624 8808 ft 295 kts 15°
2026-05-04 16:55 10.85784 -74.35827 7394 ft 290 kts 15°
2026-05-04 16:55 10.89689 -74.34864 6654 ft 283 kts 14°
2026-05-04 16:56 10.93490 -74.33928 5880 ft 280 kts 13°
2026-05-04 16:56 10.99116 -74.32542 4776 ft 274 kts 13°
2026-05-04 16:57 11.00988 -74.32229 4379 ft 272 kts
2026-05-04 16:57 11.04765 -74.32288 3318 ft 265 kts 358°
2026-05-04 16:58 11.09892 -74.32409 3006 ft 229 kts 358°
2026-05-04 16:58 11.11426 -74.32446 2904 ft 213 kts 358°
2026-05-04 16:59 11.14157 -74.32012 2712 ft 196 kts 32°
2026-05-04 17:00 11.17756 -74.28434 2022 ft 156 kts 44°
2026-05-04 17:00 11.18610 -74.25484 1432 ft 151 kts 104°
2026-05-04 17:01 11.17475 -74.23751 1011 ft 149 kts 145°
2026-05-04 17:01 11.15557 -74.23124 604 ft 145 kts 180°
2026-05-04 17:02 11.13557 -74.23092 221 ft 143 kts 182°
2026-05-04 17:02 11.11753 -74.23060 22 ft 82 kts 178°
2026-05-04 17:03 11.11408 -74.23052 22 ft 35 kts 178°
2026-05-04 17:03 11.11263 -74.23040 22 ft 13 kts 152°
2026-05-04 17:03 11.11250 -74.23046 25 ft 11 kts 348°
2026-05-04 17:04 11.11557 -74.23055 22 ft 28 kts 359°
2026-05-04 17:04 11.11737 -74.23078 24 ft 7 kts 289°
2026-05-04 17:05 11.11743 -74.23158 22 ft 3 kts 304°
2026-05-04 17:05 11.11771 -74.23192 22 ft 4 kts 269°
2026-05-04 17:06 11.11771 -74.23215 22 ft 0 kts 270°
2026-05-04 17:06 11.11771 -74.23216 22 ft 0 kts 270°